Location: ?????? ??????
(44.3742°N, 135.2221°E)
Time: 04:39:07
(UTC+00:00)

SL-8 Rocket - Pass Details

Date: 19 May 2025
Orbit: 955 x 990 km, 82.9° (Epoch: 19 June)

Event Time Altitude Azimuth Distance (km) Brightness Sun altitude
Rises 12:34:24 0° 351° (N) 3,652 8.2 -18.1°
Reaches altitude 10° 12:36:54 10° 350° (N) 2,699 7.3 -18.3°
Maximum altitude 12:43:05 82° 264° (W) 970 4.0 -19.0°
Enters shadow 12:46:35 27° 180° (S) 1,729 4.8 -19.3°
